• In Uzbekistan
  • List of Countries
  • For 7 days
  • Water Temperature
  • Satellite Maps
  • Weather Map
  • Weather Widgets
  • user-avatar
    Login

    Hourly Weather Melbourne

    Today, 18 July, Thursday

    Time Temperature Precipitation Wind Pressure Humidity
    00:00 +10°C° 0 mm 4 mps 760 mmHg 82%
    01:00 +10°C° 0 mm 4 mps 761 mmHg 80%
    02:00 +10°C° 0 mm 4 mps 761 mmHg 80%
    03:00 +8°C° 0 mm 4 mps 761 mmHg 80%
    04:00 +8°C° 0 mm 4 mps 761 mmHg 83%
    05:00 +9°C° 0 mm 3 mps 761 mmHg 82%
    06:00 +9°C° 0 mm 3 mps 761 mmHg 82%
    07:00 +8°C° 0 mm 3 mps 762 mmHg 81%
    08:00 +9°C° 0 mm 3 mps 762 mmHg 78%
    09:00 +9°C° 0 mm 3 mps 762 mmHg 76%
    10:00 +11°C° 0 mm 3 mps 762 mmHg 75%
    11:00 +11°C° 0 mm 3 mps 762 mmHg 70%
    12:00 +12°C° 0 mm 3 mps 761 mmHg 65%
    13:00 +13°C° 0 mm 3 mps 761 mmHg 59%
    14:00 +13°C° 0 mm 3 mps 760 mmHg 59%
    15:00 +13°C° 0 mm 4 mps 760 mmHg 59%
    16:00 +13°C° 0 mm 4 mps 759 mmHg 58%
    17:00 +12°C° 0 mm 5 mps 760 mmHg 63%
    18:00 +10°C° 0 mm 5 mps 760 mmHg 67%
    19:00 +9°C° 0 mm 5 mps 760 mmHg 72%
    20:00 +9°C° 0 mm 5 mps 760 mmHg 72%
    21:00 +9°C° 0 mm 5 mps 760 mmHg 72%
    22:00 +9°C° 0 mm 5 mps 760 mmHg 72%
    23:00 +9°C° 0.1 mm 5 mps 760 mmHg 73%

    Tomorrow, 19 July, Friday

    Time Temperature Precipitation Wind Pressure Humidity
    00:00 +11°C° 0.1 mm 4 mps 760 mmHg 75%
    01:00 +11°C° 0.1 mm 3 mps 761 mmHg 77%
    02:00 +10°C° 0.1 mm 3 mps 761 mmHg 80%
    03:00 +10°C° 0.1 mm 3 mps 761 mmHg 83%
    04:00 +10°C° 0.1 mm 2 mps 761 mmHg 86%
    05:00 +9°C° 0 mm 2 mps 762 mmHg 86%
    06:00 +9°C° 0 mm 2 mps 762 mmHg 87%
    07:00 +9°C° 0 mm 2 mps 763 mmHg 88%
    08:00 +9°C° 0 mm 2 mps 763 mmHg 83%
    09:00 +10°C° 0 mm 2 mps 764 mmHg 78%
    10:00 +12°C° 0 mm 2 mps 764 mmHg 73%
    11:00 +13°C° 0 mm 2 mps 764 mmHg 65%
    12:00 +14°C° 0 mm 2 mps 763 mmHg 58%
    13:00 +15°C° 0 mm 1 mps 763 mmHg 50%
    14:00 +15°C° 0 mm 1 mps 763 mmHg 52%
    15:00 +15°C° 0 mm 1 mps 763 mmHg 53%
    16:00 +15°C° 0 mm 1 mps 763 mmHg 55%
    17:00 +13°C° 0 mm 2 mps 763 mmHg 61%
    18:00 +11°C° 0 mm 3 mps 764 mmHg 68%
    19:00 +8°C° 0 mm 4 mps 764 mmHg 74%
    20:00 +8°C° 0 mm 4 mps 764 mmHg 76%
    21:00 +8°C° 0 mm 4 mps 764 mmHg 79%
    22:00 +8°C° 0 mm 4 mps 764 mmHg 81%
    23:00 +8°C° 0 mm 4 mps 764 mmHg 81%

    Day after tomorrow, 20 July, Saturday

    Time Temperature Precipitation Wind Pressure Humidity
    00:00 +8°C° 0 mm 4 mps 764 mmHg 82%
    01:00 +8°C° 0 mm 4 mps 764 mmHg 82%
    02:00 +8°C° 0 mm 4 mps 763 mmHg 81%
    03:00 +8°C° 0 mm 4 mps 763 mmHg 80%
    04:00 +8°C° 0 mm 4 mps 763 mmHg 79%
    05:00 +8°C° 0 mm 5 mps 762 mmHg 79%
    06:00 +8°C° 0 mm 5 mps 762 mmHg 78%
    07:00 +8°C° 0 mm 5 mps 762 mmHg 78%
    08:00 +9°C° 0 mm 6 mps 762 mmHg 73%
    09:00 +10°C° 0 mm 6 mps 762 mmHg 69%
    10:00 +11°C° 0 mm 7 mps 761 mmHg 64%
    11:00 +12°C° 0 mm 7 mps 761 mmHg 61%
    12:00 +14°C° 0 mm 7 mps 760 mmHg 58%
    13:00 +15°C° 0 mm 7 mps 759 mmHg 56%
    14:00 +15°C° 0 mm 7 mps 759 mmHg 57%
    15:00 +15°C° 0 mm 7 mps 758 mmHg 59%
    16:00 +14°C° 0 mm 7 mps 758 mmHg 60%
    17:00 +13°C° 0 mm 8 mps 758 mmHg 60%
    18:00 +12°C° 0 mm 8 mps 757 mmHg 60%
    19:00 +12°C° 0 mm 8 mps 757 mmHg 59%
    20:00 +12°C° 0 mm 8 mps 757 mmHg 58%
    21:00 +12°C° 0 mm 8 mps 756 mmHg 57%
    22:00 +12°C° 0 mm 8 mps 756 mmHg 56%
    23:00 +12°C° 0 mm 8 mps 756 mmHg 57%

    21 July, Sunday

    Time Temperature Precipitation Wind Pressure Humidity
    00:00 +12°C° 0 mm 8 mps 755 mmHg 57%
    01:00 +12°C° 0 mm 8 mps 754 mmHg 58%
    02:00 +11°C° 0 mm 8 mps 755 mmHg 59%
    03:00 +11°C° 0 mm 7 mps 755 mmHg 60%
    04:00 +10°C° 0 mm 6 mps 755 mmHg 61%
    05:00 +10°C° 0 mm 5 mps 756 mmHg 63%
    06:00 +10°C° 0 mm 4 mps 756 mmHg 65%
    07:00 +10°C° 0 mm 3 mps 757 mmHg 68%
    08:00 +10°C° 0 mm 3 mps 758 mmHg 64%
    09:00 +11°C° 0 mm 3 mps 758 mmHg 60%
    10:00 +12°C° 0 mm 4 mps 759 mmHg 56%
    11:00 +12°C° 0 mm 3 mps 758 mmHg 52%
    12:00 +13°C° 0 mm 3 mps 758 mmHg 48%
    13:00 +14°C° 0 mm 3 mps 758 mmHg 44%
    14:00 +14°C° 0 mm 3 mps 758 mmHg 46%
    15:00 +14°C° 0 mm 3 mps 758 mmHg 48%
    16:00 +14°C° 0 mm 3 mps 757 mmHg 49%
    17:00 +13°C° 0 mm 4 mps 758 mmHg 58%
    18:00 +11°C° 0 mm 4 mps 758 mmHg 66%
    19:00 +10°C° 0 mm 4 mps 759 mmHg 74%
    20:00 +8°C° 0 mm 4 mps 759 mmHg 76%
    21:00 +8°C° 0 mm 4 mps 759 mmHg 78%
    22:00 +8°C° 0 mm 4 mps 760 mmHg 79%
    23:00 +7°C° 0 mm 4 mps 760 mmHg 79%

    22 July, Monday

    Time Temperature Precipitation Wind Pressure Humidity
    00:00 +7°C° 0 mm 4 mps 760 mmHg 79%
    01:00 +7°C° 0 mm 4 mps 759 mmHg 79%
    02:00 +6°C° 0 mm 4 mps 759 mmHg 80%
    03:00 +6°C° 0 mm 4 mps 759 mmHg 81%
    04:00 +6°C° 0 mm 4 mps 759 mmHg 83%
    05:00 +6°C° 0 mm 4 mps 759 mmHg 83%
    06:00 +6°C° 0 mm 5 mps 760 mmHg 83%
    07:00 +6°C° 0 mm 5 mps 760 mmHg 83%
    08:00 +7°C° 0 mm 5 mps 760 mmHg 76%
    09:00 +8°C° 0 mm 6 mps 760 mmHg 70%
    10:00 +10°C° 0 mm 6 mps 760 mmHg 64%
    11:00 +11°C° 0 mm 6 mps 759 mmHg 60%
    12:00 +13°C° 0 mm 6 mps 758 mmHg 55%
    13:00 +14°C° 0 mm 6 mps 758 mmHg 51%
    14:00 +14°C° 0 mm 6 mps 757 mmHg 52%
    15:00 +14°C° 0 mm 6 mps 757 mmHg 54%
    16:00 +14°C° 0 mm 6 mps 757 mmHg 55%
    17:00 +13°C° 0 mm 6 mps 757 mmHg 57%
    18:00 +11°C° 0 mm 6 mps 757 mmHg 59%
    19:00 +11°C° 0 mm 6 mps 757 mmHg 61%
    20:00 +11°C° 0 mm 6 mps 757 mmHg 60%
    21:00 +11°C° 0 mm 6 mps 757 mmHg 59%
    22:00 +11°C° 0 mm 6 mps 757 mmHg 57%
    23:00 +10°C° 0 mm 6 mps 756 mmHg 57%

    23 July, Tuesday

    Time Temperature Precipitation Wind Pressure Humidity
    00:00 +10°C° 0 mm 6 mps 756 mmHg 57%
    01:00 +10°C° 0 mm 6 mps 756 mmHg 56%
    02:00 +10°C° 0 mm 7 mps 755 mmHg 57%
    03:00 +9°C° 0 mm 7 mps 755 mmHg 58%
    04:00 +9°C° 0 mm 7 mps 754 mmHg 58%
    05:00 +9°C° 0 mm 6 mps 755 mmHg 59%
    06:00 +9°C° 0 mm 6 mps 755 mmHg 60%
    07:00 +9°C° 0 mm 6 mps 755 mmHg 61%
    08:00 +8°C° 0.2 mm 5 mps 756 mmHg 66%
    09:00 +8°C° 0.2 mm 5 mps 756 mmHg 71%
    10:00 +8°C° 0.2 mm 5 mps 757 mmHg 75%
    11:00 +10°C° 0.2 mm 4 mps 757 mmHg 70%
    12:00 +11°C° 0.2 mm 4 mps 756 mmHg 64%
    13:00 +12°C° 0.2 mm 4 mps 756 mmHg 58%
    14:00 +12°C° 0.4 mm 4 mps 756 mmHg 60%
    15:00 +11°C° 0.4 mm 4 mps 756 mmHg 61%
    16:00 +11°C° 0.4 mm 4 mps 756 mmHg 62%
    17:00 +9°C° 0.4 mm 5 mps 757 mmHg 66%
    18:00 +8°C° 0.4 mm 5 mps 757 mmHg 70%
    19:00 +7°C° 0.4 mm 5 mps 758 mmHg 75%
    20:00 +7°C° 0 mm 5 mps 758 mmHg 75%
    21:00 +7°C° 0 mm 4 mps 759 mmHg 75%
    22:00 +6°C° 0 mm 4 mps 759 mmHg 76%
    23:00 +6°C° 0 mm 4 mps 759 mmHg 77%
    Show more